Honolulu, HI

2:10 AM HST on November 22, 2017 (GMT -1000)
Honolulu International

Weather History for PHNL - June, 2014

Change the Weather History Date:

Tuesday, June 24, 2014

  Actual Average Record
Temperature  
Mean Temperature 81 °F 81 °F  
Max Temperature 88 °F 88 °F 90 °F (1989)
Min Temperature 74 °F 74 °F 67 °F (1982)
Degree Days  
Heating Degree Days 0 0  
Month to date heating degree days 0 0  
Since 1 June heating degree days 0 0  
Since 1 July heating degree days 0 0  
Cooling Degree Days 16 16  
Month to date cooling degree days 369 362  
Year to date cooling degree days 1978 1864  
Since 1 June cooling degree days 369 362  
Growing Degree Days 30 (Base 50)    
Moisture  
Dew Point 67 °F    
Average Humidity 64    
Maximum Humidity 79    
Minimum Humidity 48    
Precipitation  
Precipitation T in 0.01 in 0.05 in (1997)
Month to date precipitation 0.45 0.21  
Year to date precipitation 10.42 7.78  
Snow  
Snow 0.00 in - - ()
Month to date snowfall 0.0  
Since 1 June snowfall 0.0  
Since 1 July snowfall 0.0  
Snow Depth 0.00 in    
Sea Level Pressure  
Sea Level Pressure 30.08 in    
Wind  
Wind Speed 10 mph (NE)    
Max Wind Speed 22 mph    
Max Gust Speed 36 mph    
Visibility 10 miles    
Events Rain    
T = Trace of Precipitation, MM = Missing Value Source: NWS Daily Summary

Daily Weather History Graph

Daily Weather History Graph

Search for Another Location

Airport or City:

Trip Planner

Search our weather history database for the weather conditions in past years. The results will help you decide how hot, cold, wet, or windy it might be!

Date:

Astronomy

Jun. 24, 2014 Rise Set
Actual Time 5:51 AM HST 7:17 PM HST
Civil Twilight 5:26 AM HST 7:41 PM HST
Nautical Twilight 4:56 AM HST 8:11 PM HST
Astronomical Twilight 4:26 AM HST 8:42 PM HST
Moon 3:53 AM HST (6/24) 5:17 PM HST (6/24)
Length of Visible Light 14h 15m
Length of Day
13h 25m
Waning Crescent, 6% of the Moon is Illuminated
Jun 24
Waning Crescent
Jun 26
New
Jul 5
First Quarter
Jul 12
Full
Jul 18
Last Quarter

Hourly Weather History & Observations

Time (HST) Temp. Heat Index Dew Point Humidity Pressure Visibility Wind Dir Wind Speed Gust Speed Precip Events Conditions
12:53 AM 75.0 °F - 66.9 °F 76% 30.05 in 10.0 mi North 3.5 mph - 0.00 in Rain Light Rain
1:53 AM 73.9 °F - 66.0 °F 76% 30.04 in 10.0 mi Calm Calm - 0.00 in   Scattered Clouds
2:53 AM 73.9 °F - 64.9 °F 73% 30.04 in 10.0 mi NNE 4.6 mph - N/A   Scattered Clouds
3:53 AM 73.9 °F - 64.9 °F 73% 30.04 in 10.0 mi NNE 4.6 mph - N/A   Scattered Clouds
4:53 AM 75.9 °F - 64.9 °F 69% 30.04 in 10.0 mi ENE 5.8 mph - N/A   Mostly Cloudy
5:53 AM 75.0 °F - 66.0 °F 73% 30.05 in 10.0 mi NE 5.8 mph - N/A   Scattered Clouds
6:53 AM 77.0 °F - 66.0 °F 69% 30.07 in 10.0 mi ENE 4.6 mph - N/A   Scattered Clouds
7:53 AM 79.0 °F - 66.9 °F 66% 30.08 in 10.0 mi ENE 13.8 mph - N/A   Scattered Clouds
8:53 AM 82.0 °F 84.5 °F 66.9 °F 60% 30.09 in 10.0 mi ENE 13.8 mph - N/A   Scattered Clouds
9:53 AM 82.9 °F 85.4 °F 66.9 °F 58% 30.09 in 10.0 mi ENE 12.7 mph 17.3 mph N/A   Scattered Clouds
10:53 AM 86.0 °F 87.6 °F 64.9 °F 49% 30.09 in 10.0 mi ENE 13.8 mph 25.3 mph N/A   Scattered Clouds
11:53 AM 86.0 °F 87.3 °F 64.0 °F 48% 30.09 in 10.0 mi ENE 16.1 mph 24.2 mph N/A   Scattered Clouds
12:53 PM 86.0 °F 88.2 °F 66.0 °F 51% 30.08 in 10.0 mi ENE 17.3 mph 23.0 mph N/A   Scattered Clouds
1:53 PM 86.0 °F 88.2 °F 66.0 °F 51% 30.07 in 10.0 mi ENE 15.0 mph 20.7 mph N/A   Scattered Clouds
2:53 PM 87.1 °F 89.2 °F 66.0 °F 49% 30.06 in 10.0 mi NE 17.3 mph 20.7 mph N/A   Scattered Clouds
3:53 PM 84.9 °F 87.6 °F 66.9 °F 55% 30.05 in 10.0 mi East 11.5 mph 19.6 mph N/A   Mostly Cloudy
4:53 PM 84.0 °F 87.0 °F 68.0 °F 58% 30.05 in 10.0 mi ENE 12.7 mph 23.0 mph N/A   Mostly Cloudy
5:53 PM 82.0 °F 84.9 °F 68.0 °F 62% 30.06 in 10.0 mi ENE 15.0 mph - N/A   Mostly Cloudy
6:53 PM 80.1 °F 82.7 °F 68.0 °F 67% 30.08 in 10.0 mi ENE 12.7 mph - N/A   Mostly Cloudy
7:53 PM 79.0 °F - 69.1 °F 72% 30.10 in 10.0 mi ENE 12.7 mph - N/A   Mostly Cloudy
8:53 PM 79.0 °F - 69.1 °F 72% 30.12 in 10.0 mi ENE 11.5 mph - 0.00 in   Scattered Clouds
9:53 PM 79.0 °F - 69.1 °F 72% 30.13 in 10.0 mi ENE 9.2 mph - N/A   Scattered Clouds
10:53 PM 78.1 °F - 69.1 °F 74% 30.14 in 10.0 mi NE 10.4 mph - N/A   Scattered Clouds
11:53 PM 78.1 °F - 66.9 °F 68% 30.13 in 10.0 mi NE 8.1 mph - N/A   Scattered Clouds